Weather History for KAQP - May, 2015

Change the Weather History Date:

Friday, May 29, 2015

  Actual Average Record
Temperature  
Mean Temperature 60 °F -  
Max Temperature 69 °F 69 °F 89 °F (1999)
Min Temperature 48 °F 48 °F 44 °F (2005)
Degree Days  
Heating Degree Days 6    
Growing Degree Days 10 (Base 50)    
Moisture  
Dew Point 52 °F    
Average Humidity 85    
Maximum Humidity 94    
Minimum Humidity 68    
Precipitation  
Precipitation 0.07 in - - ()
Sea Level Pressure  
Sea Level Pressure 29.98 in    
Wind  
Wind Speed 13 mph (North)    
Max Wind Speed 28 mph    
Max Gust Speed 34 mph    
Visibility 10 miles    
Events Rain , Thunderstorm    
Averages and records for this station are not official NWS values.
T = Trace of Precipitation, MM = Missing Value Source: NWS Daily Summary

Daily Weather History Graph

Daily Weather History Graph

Search for Another Location

Airport or City:

Trip Planner

Search our weather history database for the weather conditions in past years. The results will help you decide how hot, cold, wet, or windy it might be!

Date:

Astronomy

May. 29, 2015 Rise Set
Actual Time 5:41 AM CDT 9:01 PM CDT
Civil Twilight 5:05 AM CDT 9:37 PM CDT
Nautical Twilight 4:18 AM CDT 10:25 PM CDT
Astronomical Twilight 3:19 AM CDT 11:25 PM CDT
Moon 5:00 PM CDT (5/29) 3:37 AM CDT (5/29)
Length of Visible Light 16h 32m
Length of Day
15h 19m
Waxing Gibbous, 84% of the Moon is Illuminated
May 29
Waxing Gibbous
Jun 2
Full
Jun 9
Last Quarter
Jun 16
New
Jun 24
First Quarter

Hourly Weather History & Observations

Time (CDT) Temp. Dew Point Humidity Pressure Visibility Wind Dir Wind Speed Gust Speed Precip Events Conditions
12:15 AM 69.8 °F 59.0 °F 68% 29.90 in 10.0 mi NNW 6.9 mph 20.7 mph N/A   Overcast
12:35 AM 66.2 °F 60.8 °F 83% 29.89 in 10.0 mi NNE 19.6 mph 24.2 mph 0.03 in Rain , Thunderstorm Light Thunderstorms and Rain
12:54 AM 64.4 °F 60.8 °F 88% 29.89 in 10.0 mi North 12.7 mph 18.4 mph 0.03 in Rain , Thunderstorm Light Thunderstorms and Rain
1:14 AM 64.4 °F 59.0 °F 83% 29.88 in 10.0 mi NE 12.7 mph - N/A Rain Light Rain
1:34 AM 62.6 °F 59.0 °F 88% 29.87 in 10.0 mi ENE 9.2 mph - N/A   Overcast
1:54 AM 62.6 °F 59.0 °F 88% 29.87 in 10.0 mi ENE 5.8 mph - N/A Rain , Thunderstorm Light Thunderstorms and Rain
2:15 AM 62.6 °F 59.0 °F 88% 29.86 in 7.0 mi East 4.6 mph - N/A Rain Rain
2:34 AM 62.6 °F 59.0 °F 88% 29.84 in 10.0 mi ESE 6.9 mph - 0.01 in Rain Light Rain
2:54 AM 62.6 °F 59.0 °F 88% 29.84 in 10.0 mi SE 6.9 mph - 0.01 in Rain Light Rain
3:14 AM 62.6 °F 59.0 °F 88% 29.83 in 10.0 mi SE 9.2 mph - N/A   Mostly Cloudy
3:34 AM 62.6 °F 59.0 °F 88% 29.83 in 10.0 mi SE 8.1 mph - 0.01 in   Mostly Cloudy
3:54 AM 62.6 °F 59.0 °F 88% 29.84 in 10.0 mi South 6.9 mph - 0.01 in Rain Rain
4:14 AM 62.6 °F 59.0 °F 88% 29.80 in 7.0 mi ESE 9.2 mph - N/A Rain Rain
4:34 AM 62.6 °F 59.0 °F 88% 29.79 in 10.0 mi ESE 9.2 mph - N/A Rain Light Rain
4:54 AM 60.8 °F 57.2 °F 88% 29.82 in 10.0 mi Calm Calm - N/A   Clear
5:15 AM 60.8 °F 57.2 °F 88% 29.82 in 10.0 mi West 5.8 mph - N/A   Scattered Clouds
5:35 AM 60.8 °F 57.2 °F 88% 29.84 in 10.0 mi WNW 9.2 mph - N/A   Scattered Clouds
5:54 AM 60.8 °F 57.2 °F 88% 29.85 in 10.0 mi WNW 5.8 mph - N/A   Clear
6:14 AM 62.6 °F 59.0 °F 88% 29.85 in 10.0 mi NW 6.9 mph - N/A   Mostly Cloudy
6:34 AM 62.6 °F 60.8 °F 94% 29.85 in 10.0 mi North 10.4 mph - N/A   Overcast
6:54 AM 62.6 °F 60.8 °F 94% 29.86 in 10.0 mi North 10.4 mph - N/A   Overcast
7:15 AM 62.6 °F 60.8 °F 94% 29.87 in 10.0 mi North 9.2 mph - N/A   Overcast
7:34 AM 62.6 °F 60.8 °F 94% 29.89 in 10.0 mi NNW 9.2 mph - N/A   Overcast
7:54 AM 62.6 °F 60.8 °F 94% 29.89 in 10.0 mi North 8.1 mph - N/A Thunderstorm Mostly Cloudy
8:14 AM 62.6 °F 60.8 °F 94% 29.90 in 10.0 mi North 8.1 mph - N/A Rain Rain
8:34 AM 62.6 °F 60.8 °F 94% 29.90 in 10.0 mi North 9.2 mph - N/A Rain Light Rain
8:55 AM 62.6 °F 60.8 °F 94% 29.91 in 10.0 mi North 12.7 mph - N/A Rain Light Rain
9:14 AM 62.6 °F 60.8 °F 94% 29.92 in 10.0 mi North 16.1 mph - N/A Rain Rain
9:35 AM 60.8 °F 57.2 °F 88% 29.94 in 5.0 mi NNW 13.8 mph 19.6 mph N/A Rain Light Rain
9:54 AM 59.0 °F 55.4 °F 88% 29.95 in 7.0 mi NNW 19.6 mph - N/A Rain Rain
10:14 AM 57.2 °F 53.6 °F 88% 29.95 in 7.0 mi NNW 17.3 mph 21.9 mph N/A Rain Light Rain
10:35 AM 55.4 °F 51.8 °F 88% 29.96 in 7.0 mi NNW 17.3 mph 24.2 mph N/A Rain Light Rain
10:54 AM 55.4 °F 51.8 °F 88% 29.97 in 10.0 mi NNW 24.2 mph - N/A   Drizzle
11:15 AM 53.6 °F 51.8 °F 94% 29.97 in 10.0 mi NNW 25.3 mph 31.1 mph N/A Rain Light Rain
11:35 AM 53.6 °F 51.8 °F 94% 29.98 in 7.0 mi North 25.3 mph 31.1 mph 0.01 in Rain Light Rain
11:55 AM 53.6 °F 51.8 °F 94% 29.98 in 10.0 mi North 21.9 mph 33.4 mph 0.01 in Rain Light Rain
12:15 PM 53.6 °F 50.0 °F 88% 29.99 in 10.0 mi NNW 24.2 mph 32.2 mph N/A   Overcast
12:34 PM 53.6 °F 51.8 °F 94% 29.99 in 10.0 mi North 26.5 mph 34.5 mph N/A Rain Light Rain
12:55 PM 53.6 °F 51.8 °F 94% 30.00 in 10.0 mi NNW 24.2 mph 32.2 mph N/A   Light Drizzle
1:14 PM 53.6 °F 50.0 °F 88% 30.00 in 10.0 mi NNW 25.3 mph 33.4 mph N/A   Light Drizzle
1:54 PM 51.8 °F 48.2 °F 88% 30.01 in 2.5 mi North 24.2 mph 34.5 mph 0.01 in Rain Light Rain
2:15 PM 51.8 °F 48.2 °F 88% 30.02 in 10.0 mi NNW 27.6 mph 33.4 mph N/A Rain Light Rain
2:35 PM 51.8 °F 48.2 °F 88% 30.03 in 10.0 mi NNW 24.2 mph 33.4 mph N/A   Drizzle
2:54 PM 51.8 °F 48.2 °F 88% 30.03 in 5.0 mi North 25.3 mph 34.5 mph N/A Rain Light Rain
3:14 PM 51.8 °F 48.2 °F 88% 30.03 in 7.0 mi NNW 26.5 mph 34.5 mph N/A Rain Rain
3:34 PM 51.8 °F 46.4 °F 82% 30.04 in 10.0 mi NNW 21.9 mph 34.5 mph N/A Rain Rain
3:54 PM 51.8 °F 46.4 °F 82% 30.05 in 10.0 mi NNW 23.0 mph 31.1 mph N/A Rain Rain
4:15 PM 51.8 °F 46.4 °F 82% 30.05 in 10.0 mi NNW 21.9 mph 32.2 mph N/A Rain Light Rain
4:34 PM 51.8 °F 46.4 °F 82% 30.05 in 10.0 mi NNW 19.6 mph 31.1 mph N/A   Light Drizzle
4:54 PM 51.8 °F 46.4 °F 82% 30.05 in 10.0 mi NNW 21.9 mph 27.6 mph N/A   Light Drizzle
5:15 PM 51.8 °F 46.4 °F 82% 30.05 in 10.0 mi NNW 23.0 mph 29.9 mph N/A   Light Drizzle
5:34 PM 51.8 °F 46.4 °F 82% 30.06 in 10.0 mi NNW 21.9 mph 27.6 mph N/A   Light Drizzle
5:54 PM 51.8 °F 46.4 °F 82% 30.06 in 10.0 mi NNW 25.3 mph 29.9 mph N/A   Mostly Cloudy
6:15 PM 53.6 °F 46.4 °F 77% 30.05 in 10.0 mi North 24.2 mph 31.1 mph N/A   Mostly Cloudy
6:34 PM 53.6 °F 46.4 °F 77% 30.06 in 10.0 mi North 27.6 mph 33.4 mph N/A   Mostly Cloudy
6:54 PM 53.6 °F 46.4 °F 77% 30.07 in 10.0 mi NNW 19.6 mph 26.5 mph N/A   Mostly Cloudy
7:14 PM 53.6 °F 46.4 °F 77% 30.07 in 10.0 mi North 21.9 mph 27.6 mph N/A   Mostly Cloudy
7:34 PM 53.6 °F 44.6 °F 72% 30.08 in 10.0 mi North 17.3 mph 24.2 mph N/A   Mostly Cloudy
7:54 PM 53.6 °F 44.6 °F 72% 30.10 in 10.0 mi North 15.0 mph 23.0 mph N/A   Scattered Clouds
8:14 PM 53.6 °F 44.6 °F 72% 30.10 in 10.0 mi North 15.0 mph - N/A   Clear
8:35 PM 53.6 °F 44.6 °F 72% 30.12 in 10.0 mi North 16.1 mph 20.7 mph N/A   Clear
8:54 PM 53.6 °F 44.6 °F 72% 30.12 in 10.0 mi North 12.7 mph 20.7 mph N/A   Clear
9:14 PM 53.6 °F 44.6 °F 72% 30.12 in 10.0 mi North 12.7 mph - N/A   Clear
9:34 PM 51.8 °F 44.6 °F 76% 30.14 in 10.0 mi NNW 9.2 mph - N/A   Clear
9:54 PM 51.8 °F 44.6 °F 76% 30.15 in 10.0 mi NNW 9.2 mph - N/A   Clear
10:14 PM 51.8 °F 44.6 °F 76% 30.15 in 10.0 mi NNW 12.7 mph 18.4 mph N/A   Clear
10:34 PM 51.8 °F 44.6 °F 76% 30.15 in 10.0 mi NNW 11.5 mph - N/A   Clear
10:54 PM 51.8 °F 44.6 °F 76% 30.15 in 10.0 mi NNW 13.8 mph - N/A   Clear
11:15 PM 50.0 °F 44.6 °F 82% 30.16 in 10.0 mi NNW 16.1 mph - N/A   Clear
11:34 PM 50.0 °F 42.8 °F 76% 30.17 in 10.0 mi NNW 12.7 mph 21.9 mph N/A   Clear
11:54 PM 48.2 °F 42.8 °F 82% 30.17 in 10.0 mi NNW 11.5 mph - N/A   Clear